Home   Weather   Adelaide   Past weeks

Flag for Australia Past Weather in Adelaide, South Australia, Australia — Yesterday and Last 2 Weeks

Now
57 °F

Broken clouds.


Feels Like: 53 °F
Forecast: 52 / 68 °F
Wind: 23 mph from Southwest

Location: Adelaide Airport

Current Time: Sep 30, 2016 at 12:58:03 PM

Latest Report: Sep 30, 2016 at 12:30 PM


Visibility: N/A

Pressure: 29.65 "Hg

Humidity: 67%

Dew Point: 46 °F

Location of AdelaideLocation

Past Weather in Adelaide — Graph

°F

Adelaide Temperature Yesterday

Maximum temperature yesterday: 59 °F (at 11:30 AM)
Minimum temperature yesterday: 46 °F (at 5:00 AM)
Average temperature yesterday: 53 °F

High & Low Weather Summary for the Past Weeks

 TemperatureHumidityPressure
High66 °F (Sep 17, 12:30 PM)100% (Sep 29, 6:00 AM)30.18 "Hg (Sep 29, 6:00 AM)
Low43 °F (Sep 23, 4:30 AM)32% (Sep 28, 10:30 AM)28.85 "Hg (Sep 29, 6:30 AM)
Average55 °F68%29.84 "Hg
* Reported Sep 15 11:30 AM — Sep 30 11:30 AM, Adelaide, Weather by CustomWeather, © 2016

Note: Actual official high and low records may vary slightly from our data, if they occured in-between our weather recording intervals... More about our weather records

Advertising

Adelaide Weather History for the Previous 24 Hours

Scroll right to see more
 ConditionsComfort  
Time TempWeatherWind HumidityBarometerVisibility
11:30 AM
Fri, Sep 30
55 °FScattered showers. Broken clouds.21 mph82%29.65 "HgN/A
11:00 AM57 °FBroken clouds.24 mph77%29.65 "HgN/A
10:30 AM57 °FBroken clouds.24 mph77%29.62 "HgN/A
10:00 AM57 °FBroken clouds.25 mph72%29.62 "HgN/A
9:30 AM57 °FScattered showers. Partly sunny.23 mph77%29.62 "HgN/A
9:00 AM55 °FPartly sunny.22 mph82%29.59 "HgN/A
8:30 AM55 °FScattered showers. Broken clouds.22 mph82%29.59 "HgN/A
8:00 AM54 °FScattered showers. Broken clouds.20 mph94%29.56 "HgN/A
7:30 AM55 °FDrizzle. Broken clouds.21 mph77%29.56 "HgN/A
7:00 AM55 °FBroken clouds.21 mph77%29.56 "HgN/A
6:30 AM55 °FPartly sunny.22 mph77%29.53 "HgN/A
5:30 AM55 °FPartly cloudy.17 mph77%29.50 "HgN/A
5:00 AM54 °FPartly cloudy.22 mph82%29.50 "HgN/A
4:30 AM54 °FPassing clouds.18 mph82%29.50 "HgN/A
4:00 AM52 °FSprinkles. Passing clouds.28 mph88%29.47 "Hg4 mi
3:30 AM54 °FPassing clouds.16 mph77%29.47 "HgN/A
3:00 AM54 °FScattered showers. Passing clouds.17 mph82%29.45 "HgN/A
2:30 AM54 °FScattered showers. Passing clouds.18 mph82%29.45 "HgN/A
2:00 AM54 °FPassing clouds.14 mph82%29.45 "HgN/A
1:30 AM52 °FScattered showers. Passing clouds.16 mph77%29.42 "HgN/A
1:00 AM52 °FScattered showers. Passing clouds.18 mph82%29.42 "HgN/A
12:30 AM52 °FSprinkles. Partly cloudy.21 mph88%29.39 "HgN/A
12:00 AM54 °FScattered showers. Partly cloudy.36 mph88%29.33 "HgN/A
11:30 PM
Thu, Sep 29
54 °FScattered showers. Overcast.35 mph88%29.33 "Hg6 mi
11:00 PM54 °FLight rain. Overcast.36 mph88%29.33 "Hg4 mi
10:30 PM54 °FLight rain. Overcast.35 mph88%29.36 "Hg4 mi
10:00 PM54 °FLight rain. Overcast.36 mph88%29.36 "Hg4 mi
9:30 PM54 °FLight rain. Partly cloudy.35 mph88%29.36 "Hg4 mi
9:00 PM54 °FSprinkles. Partly cloudy.36 mph82%29.36 "Hg5 mi
8:30 PM54 °FScattered showers. Partly cloudy.38 mph82%29.36 "HgN/A
7:30 PM54 °FSprinkles. Partly cloudy.35 mph88%29.33 "HgN/A
7:00 PM54 °FPassing clouds.36 mph82%29.30 "HgN/A
6:30 PM54 °FScattered showers. Partly sunny.36 mph88%29.27 "Hg6 mi
6:23 PM54 °FSprinkles. Partly sunny.36 mph88%29.27 "Hg4 mi
5:30 PM55 °FSprinkles. Partly sunny.37 mph82%29.24 "Hg4 mi
5:00 PM55 °FSprinkles. Partly sunny.36 mph82%29.21 "Hg3 mi
4:30 PM54 °FSprinkles. Partly sunny.32 mph94%29.18 "Hg4 mi
4:25 PM54 °FSprinkles. Partly sunny.32 mph94%29.18 "Hg3 mi
3:30 PM55 °FSprinkles. Broken clouds.20 mph94%29.12 "Hg5 mi
3:00 PM54 °FScattered showers. Broken clouds.13 mph94%29.12 "Hg6 mi
2:30 PM54 °FSprinkles. Partly sunny.20 mph88%29.12 "Hg2 mi
2:22 PM54 °FSprinkles. Partly sunny.17 mph88%29.12 "Hg3 mi
1:30 PM57 °FBroken clouds.17 mph72%29.12 "HgN/A
1:00 PM59 °FPartly sunny.18 mph68%29.12 "HgN/A
12:30 PM59 °FBroken clouds.22 mph63%29.12 "HgN/A
12:00 PM59 °FScattered clouds.24 mph59%29.12 "HgN/A
Weather by CustomWeather, © 2016

See weather overviewHow to use our weather pages